Location: Linz
(48.3300°N, 14.3000°E)
Time: 13:05:57
(UTC+02:00)

Envisat - Pass Details

Date: 14 November 2017
Orbit: 764 x 766 km, 98.2° (Epoch: 20 June)

Event Time Altitude Azimuth Distance (km) Brightness Sun altitude
Exits shadow 19:35:01 18° 351° (N) 1,802 5.0 -31.4°
Drops below altitude 10° 19:36:20 10° 349° (N) 2,314 5.6 -31.7°
Sets 19:38:39 0° 348° (NNW) 3,244 6.5 -32.0°
